Terminal Aerodrome Forecast
Issued by NWS Sioux Falls, SD

Home | Current Version | Previous Version | Graphics & Text | Print | Product List | Glossary On
Versions: 1 2 3 4 5 6 7 8 9 10 11 12 13 14
000
FTUS43 KFSD 271400 AAA
TAFHON
TAF AMD
KHON 271422Z 2714/2812 33017G24KT P6SM BKN025
     FM271800 34015G21KT P6SM SCT040
     FM280130 36008KT P6SM FEW040
     FM280500 34003KT P6SM SCT050=

USA.gov is the U.S. government's official web portal to all federal, state and local government web resources and services.